Regional Weather Roundup
Issued by NWS

Home | Current Version | Previous Version | Graphics & Text | Print | Product List | Glossary On
Versions: 1 2 3 4 5 6 7 8 9 10 11 12 13 14 15 16 17 18 19 20 21 22 23 24 25 26 27
000
ASUS45 KBOU 171407
RWRCO

WEATHER ROUNDUP FOR COLORADO
NATIONAL WEATHER SERVICE DENVER/BOULDER CO
800 AM MDT TUE OCT 17 2017

NOTE: "FAIR" INDICATES FEW OR NO CLOUDS BELOW 12000 FEET WITH NO
SIGNIFICANT WEATHER AND/OR OBSTRUCTIONS TO VISIBILITY.

COZ001>005-013-030-031-171500-
...NORTHWEST COLORADO...

CITY           SKY/WX    TMP DP  RH WIND       PRES   REMARKS
CRAIG          FAIR      19  14  81 CALM      30.41S
HAYDEN         FAIR      32  14  47 E10       30.42S WCI  24
MEEKER         FAIR      26  15  63 NE6       30.41S WCI  19
RABBIT EARS PA FAIR      36   0  21 W5        30.52R
STEAMBOAT SPGS FAIR      26  11  53 CALM      30.42S
WALDEN         FAIR      23   9  54 SE8       30.44S WCI  14
$$

COZ006>008-011-171500-
...WEST CENTRAL VALLEYS...

CITY           SKY/WX    TMP DP  RH WIND       PRES   REMARKS
GRAND JUNCTION FAIR      34  13  41 CALM      30.38S
MONTROSE       FAIR      31  15  52 SE8       30.44R WCI  23
EAGLE          FAIR      23  14  68 CALM      30.50S
RIFLE          FAIR      28  15  58 CALM      30.43S
DELTA          FAIR      32  11  40 CALM      30.42S
NUCLA          NOT AVBL
$$

COZ017>023-064>068-171500-
...SOUTHWEST COLORADO...

CITY           SKY/WX    TMP DP  RH WIND       PRES   REMARKS
DURANGO        FAIR      26  14  60 CALM      30.41S
CORTEZ         FAIR      26  15  63 E7        30.40S WCI  18
PAGOSA SPRINGS FAIR      31  13  49 CALM      30.46S
TELLURIDE      NOT AVBL
WOLF CREEK PAS NOT AVBL
$$

COZ009-010-012-014-032>034-037-058>063-171500-
...CENTRAL COLORADO...

CITY           SKY/WX    TMP DP  RH WIND       PRES   REMARKS
ASPEN          FAIR      26  10  50 S6        30.45S WCI  19
BUENA VISTA    FAIR      31   8  37 CALM      30.45S
COPPER MTN     FAIR      36 -11  13 W13       30.60S
BERTHOUD PASS  FAIR      28  19  69 NW25      30.58R WCI  14
COTTONWOOD PAS FAIR      48 -13   7 W9G17     30.50F
GUNNISON       FAIR      15   7  70 CALM      30.55R
KREMMLING      FAIR      23  16  74 CALM      30.51R
LEADVILLE      FAIR      25  -2  31 S3        30.51S
MONARCH PASS   FAIR      32  -4  21 W24       30.69S WCI  19
SALIDA         NOT AVBL
SUNLIGHT       FAIR      34  -4  19 SW10      30.58F WCI  26
WILKERSON PASS FAIR      37 -18   8 W8        30.57S
$$

COZ069>075-171500-
...SAN LUIS VALLEY/SANGRE DE CRISTO MOUNTAINS...

CITY           SKY/WX    TMP DP  RH WIND       PRES   REMARKS
ALAMOSA        FAIR      25  16  68 CALM      30.45R
DEL NORTE      FAIR      36  11  35 W17       30.47S
LA VETA PASS   FAIR      39  10  30 SW26G35   30.61R
SAGUACHE       FAIR      32   9  37 N8        30.46S WCI  25
$$

COZ035-036-038>040-171500-
...NORTHERN COLORADO FRONT RANGE...

CITY           SKY/WX    TMP DP  RH WIND       PRES   REMARKS
DENVER INTL AP FAIR      46  13  26 SW14      30.25S
DMNS CITY PARK   N/A     44  12  26 SE9G15    30.26S
AURORA         PTCLDY    45  12  26 S10       30.27S
FRONT RANGE AP PTCLDY    41  21  45 S7G17     30.26S
ERIE MUNI ARPT FAIR      32  26  78 CALM      30.30S
BOULDER MUN AP FAIR      41  21  45 SW5       30.24S
CENTENNIAL     FAIR      40  16  37 SE6       30.28R
BROOMFIELD     PTCLDY    50  10  20 CALM      30.26S
FORT COLLINS   FAIR      39  26  59 N5        30.24S
LONGMONT       FAIR      34  23  64 W5        30.27R WCI  30
$$

COZ041-046-047-076>085-087-088-171500-
...PIKES PEAK/PALMER DIVIDE AND SOUTHERN FOOTHILLS...

CITY           SKY/WX    TMP DP  RH WIND       PRES   REMARKS
COLO. SPRINGS  FAIR      47  15  27 N8        30.31S
A. F. ACADEMY  FAIR      36  10  33 N9        30.31S
SCHRIEVER AFB  FAIR      52  11  19 N6        30.31R
CHEYENNE MTN   FAIR      56   6  13 CALM      30.28S
ELLICOTT       FAIR     N/A N/A N/A E9        30.28S
FALCON         FAIR      43  14  31 CALM      30.34R
FORT CARSON    FAIR      46  12  25 NW9       30.27S
LIMON          FAIR      33  25  72 N3        30.26S
MONUMENT HILL  FAIR      37  12  35 S7        30.34S
CANON CITY     CLEAR     54   9  16 W18       30.28S
WALSENBURG     FAIR      54  12  19 CALM      30.30S
TRINIDAD       FAIR      42  20  41 NW6       30.30R
$$

COZ042>045-048>051-090-091-171500-
...NORTHEAST COLORADO...

CITY           SKY/WX    TMP DP  RH WIND       PRES   REMARKS
GREELEY ARPT   FAIR      33  27  78 W3        30.24F
AKRON          NOT AVBL
BURLINGTON     FAIR      44  29  55 W7        30.21R
WRAY           FAIR      36  30  80 W6        30.20R
YUMA           NOT AVBL
STERLING       FAIR      32  28  86 SW7       30.20S WCI  26
HOLYOKE        FAIR      41  30  65 W10       30.19S
FORT MORGAN    FAIR      35  26  70 W14       30.23R WCI  26
$$

COZ086-089-092>099-171500-
...SOUTHEAST COLORADO...

CITY           SKY/WX    TMP DP  RH WIND       PRES   REMARKS
PUEBLO         FAIR      44  21  40 SW5       30.24S
LA JUNTA       FAIR      44  24  45 W12       30.22R
LAMAR          FLURRIES  39  30  70 SW6       30.18S
SPRINGFIELD      N/A     49  28  44 NW10      30.19R
$$




USA.gov is the U.S. government's official web portal to all federal, state and local government web resources and services.